Location: Newark
(8.3333°N, 39.1667°E)
Time: 21:54:53
(UTC+00:00)

Starlink (trailer) - Visible Passes

Search period start: 20 July 2019 00:00
Search period end: 30 July 2019 00:00
Orbit: 548 x 551 km, 53.0° (Epoch: 19 July)

Date Brightness Start Highest point End Pass type
(mag) Time Alt. Az. Time Alt. Az. Time Alt. Az.
27 Jul 5.6 17:21:55 10° SSW 17:23:05 18° SSW 17:23:05 18° SSW visible
28 Jul 3.7 17:16:27 10° SW 17:20:34 73° NW 17:22:36 29° NNE visible
29 Jul 4.8 17:11:11 10° SW 17:15:08 44° NW 17:19:05 10° NNE visible
